Location: ASU Dark Sky Observatory
(36.2504°N, 81.4125°W)
Time: 11:53:56
(UTC-05:00)

Amateur Radio Satellites - All Passes

Search period start: 26 February 2017 11:23
Search period end: 27 February 2017 11:23
Location: ASU Dark Sky Observatory, 36.2504°N, 81.4125°W

Satellite Date Start Highest point End Downlink Frequencies (MHz)
Time Altitude Azimuth
DUCHIFAT 1 26 Feb 11:25:07 11:29:17 70° 76° (ENE) 11:33:31 145.980
ESTCUBE 1 26 Feb 11:26:03 11:30:13 37° 98° (E) 11:34:21 437.505/2401.250
EO-79 26 Feb 11:37:12 11:41:23 68° 259° (W) 11:45:38 145.935-145.965
FO-29 26 Feb 11:37:19 11:43:19 30° 267° (W) 11:49:50 435.910
VELOX 1 26 Feb 11:47:26 11:50:39 20° 95° (E) 11:53:53 145.980
SPROUT 26 Feb 11:47:48 11:50:28 16° 93° (E) 11:53:05 437.525
YUBILEINY 26 Feb 11:48:21 11:56:24 39° 285° (WNW) 12:04:29 435.215
NANOSAT C BR1 26 Feb 11:53:41 11:57:43 46° 261° (W) 12:01:48 145.865
POLYITAN 1 26 Feb 11:55:20 11:59:18 40° 261° (W) 12:03:20 437.675
QB50P2 26 Feb 11:58:31 12:02:22 34° 262° (W) 12:06:15 145.880/145.840
Gurwin Techsat 1B 26 Feb 12:11:21 12:13:45 13° 62° (ENE) 12:16:08 435.225
BUGSAT 1 26 Feb 12:17:50 12:21:52 84° 257° (WSW) 12:26:00 437.445
Oscar 19 26 Feb 12:53:37 12:58:42 62° 74° (ENE) 13:03:47 437.125/150
ESTCUBE 1 26 Feb 13:03:43 13:06:43 18° 293° (WNW) 13:09:41 437.505/2401.250
50 SAT 26 Feb 13:05:29 13:08:53 57° 285° (WNW) 13:12:17 437.505
DX 1 26 Feb 13:10:32 13:14:54 77° 103° (ESE) 13:19:14 434.975-435.025
UKube-1 26 Feb 13:20:19 13:24:38 69° 101° (ESE) 13:28:55 .
SPROUT 26 Feb 13:22:30 13:26:28 37° 288° (WNW) 13:30:26 437.525
VELOX 1 26 Feb 13:23:13 13:27:08 32° 289° (WNW) 13:31:02 145.980
ITAMSAT 1 26 Feb 13:32:47 13:35:21 14° 62° (ENE) 13:37:55 435.822/435.867
AO-85 26 Feb 13:33:41 13:37:36 80° 241° (WSW) 13:41:36 145.980
ISS 26 Feb 13:34:54 13:37:20 19° 29° (NNE) 13:39:45 437.550
AO-7 26 Feb 13:45:24 13:52:04 28° 58° (ENE) 13:58:42 .
Gurwin Techsat 1B 26 Feb 13:47:43 13:53:01 73° 258° (WSW) 13:58:21 435.225
Tancredo 1 26 Feb 13:57:26 14:00:17 28° 34° (NNE) 14:03:06 437.200
BEESAT 26 Feb 13:59:09 14:00:05 10° 91° (E) 14:01:01 436.000
BEESAT 3 26 Feb 14:02:00 14:03:42 12° 47° (NE) 14:05:23 437.485
Oscar 19 26 Feb 14:36:01 14:38:22 13° 268° (W) 14:40:45 437.125/150
BEESAT 2 26 Feb 14:42:34 14:44:40 14° 47° (NE) 14:46:48 435.950
ITAMSAT 1 26 Feb 15:09:01 15:14:11 68° 258° (WSW) 15:19:24 435.822/435.867
ISS 26 Feb 15:10:48 15:13:58 47° 225° (SW) 15:17:07 437.550
RS-15 26 Feb 15:18:00 15:24:41 17° 97° (E) 15:31:27 29.354- 29.394
PCSat 26 Feb 15:23:36 15:28:28 35° 109° (ESE) 15:33:21 145.827
ITUPSAT 1 26 Feb 15:27:44 15:32:33 79° 285° (WNW) 15:37:19 437.325
BEESAT 26 Feb 15:33:30 15:38:16 67° 285° (WNW) 15:42:59 436.000
Tancredo 1 26 Feb 15:33:48 15:36:28 24° 229° (SW) 15:39:06 437.200
AO-7 26 Feb 15:35:55 15:44:11 64° 256° (WSW) 15:52:29 .
BEESAT 3 26 Feb 15:37:42 15:41:40 61° 243° (WSW) 15:45:36 437.485
MOZHAYETS 4 26 Feb 15:43:14 15:47:46 55° 100° (E) 15:52:14
KKS-1 26 Feb 16:05:33 16:09:01 22° 96° (E) 16:12:29 437.445
BEESAT 2 26 Feb 16:18:49 16:22:47 54° 244° (WSW) 16:26:41 435.950
NO-84 26 Feb 16:22:25 16:25:28 65° 131° (SE) 16:28:47 435.350 FM
CUTE-I 26 Feb 16:30:05 16:31:58 12° 61° (ENE) 16:33:51 437.470
STARS 26 Feb 16:36:03 16:39:22 20° 95° (E) 16:42:41 437.465
XW-2C 26 Feb 16:42:41 16:42:52 10° 66° (ENE) 16:43:04 145.795 - 145.815
CUBESAT XI-V 26 Feb 16:46:11 16:50:29 39° 98° (E) 16:54:45 437.345
LilacSat-2 26 Feb 16:58:23 17:00:59 17° 69° (ENE) 17:03:35 437.200
PCSat 26 Feb 17:07:11 17:11:51 29° 306° (NW) 17:16:33 145.827
MOZHAYETS 4 26 Feb 17:22:16 17:24:24 13° 295° (WNW) 17:26:32
RS-15 26 Feb 17:23:14 17:35:04 81° 116° (ESE) 17:47:26 29.354- 29.394
KKS-1 26 Feb 17:41:40 17:45:33 30° 290° (WNW) 17:49:25 437.445
KAITUO 1B 26 Feb 17:46:29 17:50:11 54° 75° (ENE) 17:53:56 145.475/437.950
DOVE 4 26 Feb 17:52:50 17:56:58 90° 297° (WNW) 18:01:09 437.250
XW-2F 26 Feb 17:53:25 17:57:15 84° 77° (ENE) 18:01:07 145.980 - 146.000
XW-2D 26 Feb 17:58:56 18:02:45 77° 257° (WSW) 18:06:38 145.860 - 145.880
NO-84 26 Feb 18:01:48 18:03:32 13° 331° (NNW) 18:05:21 435.350 FM
XW-2B 26 Feb 18:04:02 18:07:51 68° 258° (WSW) 18:11:43 145.730 - 145.750
CUTE-I 26 Feb 18:05:55 18:11:15 82° 257° (WSW) 18:16:38 437.470
M-CUBED/EXP-1 PRIME 26 Feb 18:10:30 18:14:22 71° 289° (WNW) 18:18:33 437.505
STARS 26 Feb 18:11:48 18:15:42 31° 289° (WNW) 18:19:36 437.465
XW-2C 26 Feb 18:12:51 18:16:34 50° 260° (W) 18:20:21 145.795 - 145.815
NUDT-PHONESAT 26 Feb 18:19:47 18:23:26 50° 261° (W) 18:27:07 437.300
CUBESAT XI-V 26 Feb 18:24:27 18:27:31 18° 293° (WNW) 18:30:36 437.345
LilacSat-2 26 Feb 18:31:41 18:35:02 28° 264° (W) 18:38:24 437.200
HO-68 26 Feb 18:37:02 18:43:49 47° 68° (ENE) 18:50:36 435.675
SEEDS 26 Feb 18:47:51 18:51:13 23° 70° (ENE) 18:54:35 437.485
UWE-3 26 Feb 19:01:25 19:03:54 15° 66° (ENE) 19:06:25 435.000/436.395/437.385
XW-2A 26 Feb 19:10:20 19:13:41 66° 258° (WSW) 19:17:05 145.665 - 145.685
ZACube-1 26 Feb 19:19:30 19:21:42 14° 65° (ENE) 19:23:55 437.345
STRAND 1 26 Feb 19:22:08 19:27:01 41° 99° (E) 19:31:50 437.568
CUTE 1.7 + AOD 2 26 Feb 19:27:52 19:32:08 73° 259° (WSW) 19:36:25 437.475
RS-15 26 Feb 19:38:32 19:49:00 33° 320° (NW) 19:59:47 29.354- 29.394
CUBEBUG 2 26 Feb 20:01:10 20:05:34 73° 258° (WSW) 20:10:09 437.445
AO-73 26 Feb 20:04:50 20:08:57 39° 72° (ENE) 20:13:10 145.935
YUBILEINY 26 Feb 20:06:23 20:11:37 17° 65° (ENE) 20:16:49 435.215
AAUSAT CUBESAT 2 26 Feb 20:07:17 20:11:26 81° 258° (WSW) 20:15:36 437.432
Oscar 11 26 Feb 20:09:52 20:13:53 38° 73° (ENE) 20:17:55 .
SEEDS 26 Feb 20:23:18 20:26:47 24° 264° (W) 20:30:15 437.485
HO-68 26 Feb 20:25:36 20:31:39 29° 264° (W) 20:37:45 435.675
UWE-3 26 Feb 20:35:36 20:39:52 47° 261° (W) 20:44:18 435.000/436.395/437.385
ZACube-1 26 Feb 20:53:08 20:57:28 52° 261° (W) 21:01:54 437.345
STRAND 1 26 Feb 21:02:03 21:05:50 21° 294° (WNW) 21:09:37 437.568
JUGNU 26 Feb 21:06:33 21:09:20 14° 172° (S) 21:12:08 437.505
DELFI C3 26 Feb 21:26:31 21:30:29 87° 258° (WSW) 21:34:27 145.870
AO-73 26 Feb 21:42:27 21:45:19 17° 267° (W) 21:48:13 145.935
LO-87 26 Feb 21:43:35 21:45:22 13° 69° (ENE) 21:47:10 145.935 - 145.965
Oscar 11 26 Feb 21:47:25 21:50:07 16° 267° (W) 21:52:49 .
RS-15 26 Feb 22:00:38 22:07:20 16° 355° (N) 22:14:02 29.354- 29.394
YUBILEINY 26 Feb 22:00:47 22:09:33 88° 266° (W) 22:18:15 435.215
SO-50 26 Feb 22:02:20 22:07:02 88° 299° (WNW) 22:11:41 436.795
PRISM 26 Feb 22:05:55 22:10:00 77° 283° (WNW) 22:14:05 437.425
ESTCUBE 1 26 Feb 22:23:12 22:26:55 26° 70° (ENE) 22:30:39 437.505/2401.250
O/OREOS (USA 219) 26 Feb 22:42:52 22:47:20 79° 292° (WNW) 22:51:50 437.305
VELOX 1 26 Feb 22:43:22 22:45:28 13° 65° (ENE) 22:47:34 145.980
TIGRISAT 26 Feb 22:44:45 22:49:27 79° 284° (WNW) 22:54:05 435.000
UNISAT 6 26 Feb 22:44:58 22:49:40 73° 284° (WNW) 22:54:16 437.425
FO-29 26 Feb 22:49:14 22:56:35 56° 99° (E) 23:03:10 435.910
JUGNU 26 Feb 22:54:17 22:57:32 15° 183° (S) 23:00:48 437.505
NO-84 26 Feb 22:58:30 23:01:32 20° 34° (NE) 23:04:42 435.350 FM
DUCHIFAT 1 26 Feb 23:13:20 23:15:29 14° 93° (E) 23:17:37 145.980
LO-87 26 Feb 23:15:26 23:18:32 29° 263° (W) 23:21:40 145.935 - 145.965
EO-79 26 Feb 23:24:58 23:28:24 23° 96° (E) 23:31:48 145.935-145.965
50 SAT 26 Feb 23:36:56 23:40:02 30° 73° (ENE) 23:43:09 437.505
NANOSAT C BR1 26 Feb 23:40:34 23:44:24 32° 97° (E) 23:48:14 145.865
POLYITAN 1 26 Feb 23:42:34 23:46:34 37° 98° (E) 23:50:33 437.675
QB50P2 26 Feb 23:45:31 23:49:38 44° 99° (E) 23:53:43 145.880/145.840
SO-50 26 Feb 23:46:39 23:48:08 11° 317° (NW) 23:49:38 436.795
SRMSAT 26 Feb 23:56:46 23:59:59 15° 174° (S) 00:03:11 437.500
ESTCUBE 1 26 Feb 23:59:52 00:03:37 25° 264° (W) 00:07:22 437.505/2401.250
YUBILEINY 27 Feb 00:00:48 00:04:58 14° 283° (WNW) 00:09:08 435.215
BUGSAT 1 27 Feb 00:03:04 00:05:53 17° 94° (E) 00:08:43 437.445
DX 1 27 Feb 00:03:18 00:07:25 45° 73° (ENE) 00:11:32 434.975-435.025
UKube-1 27 Feb 00:12:06 00:16:07 40° 72° (ENE) 00:20:08 .
SPROUT 27 Feb 00:12:33 00:16:47 72° 258° (WSW) 00:21:03 437.525
AIST 2D 27 Feb 00:12:46 00:16:07 39° 286° (WNW) 00:19:25 435.315
PCSat 27 Feb 00:14:30 00:18:14 18° 49° (NE) 00:21:57 145.827
RS-15 27 Feb 00:16:54 00:26:32 25° 32° (NNE) 00:35:54 29.354- 29.394
VELOX 1 27 Feb 00:17:13 00:21:28 49° 260° (W) 00:25:44 145.980
FO-29 27 Feb 00:35:00 00:41:00 27° 298° (WNW) 00:46:35 435.910
NO-84 27 Feb 00:35:22 00:39:31 63° 229° (SW) 00:43:53 435.350 FM
JUGNU 27 Feb 00:44:33 00:45:44 11° 193° (SSW) 00:46:54 437.505
DUCHIFAT 1 27 Feb 00:47:17 00:51:19 42° 287° (WNW) 00:55:20 145.980
EO-79 27 Feb 01:00:32 01:04:04 26° 290° (WNW) 01:07:36 145.935-145.965
BEESAT 27 Feb 01:04:06 01:04:37 10° 62° (ENE) 01:05:08 436.000
Oscar 19 27 Feb 01:08:19 01:12:37 26° 96° (E) 01:16:53 437.125/150
50 SAT 27 Feb 01:11:50 01:13:14 12° 266° (W) 01:14:37 437.505
NANOSAT C BR1 27 Feb 01:16:52 01:19:52 19° 292° (WNW) 01:22:50 145.865
POLYITAN 1 27 Feb 01:19:19 01:22:01 17° 293° (WNW) 01:24:43 437.675
QB50P2 27 Feb 01:22:44 01:25:00 14° 294° (WNW) 01:27:17 145.880/145.840
BUGSAT 1 27 Feb 01:37:27 01:41:18 34° 288° (WNW) 01:45:08 437.445
DX 1 27 Feb 01:41:45 01:43:48 13° 267° (W) 01:45:50 434.975-435.025
SRMSAT 27 Feb 01:45:01 01:48:22 15° 184° (S) 01:51:45 437.500
UKube-1 27 Feb 01:49:52 01:52:17 15° 266° (W) 01:54:43 .
PCSat 27 Feb 01:56:42 02:02:03 62° 247° (WSW) 02:07:23 145.827
Gurwin Techsat 1B 27 Feb 02:06:37 02:11:51 55° 101° (E) 02:17:02 435.225
RS-15 27 Feb 02:29:13 02:41:34 75° 58° (ENE) 02:53:19 29.354- 29.394
ITUPSAT 1 27 Feb 02:31:30 02:36:18 88° 81° (E) 02:41:09 437.325
BEESAT 27 Feb 02:36:54 02:41:41 79° 257° (WSW) 02:46:30 436.000
MOZHAYETS 4 27 Feb 02:42:19 02:46:37 38° 72° (ENE) 02:50:55
Oscar 19 27 Feb 02:47:24 02:51:53 31° 291° (WNW) 02:56:22 437.125/150
KKS-1 27 Feb 03:01:59 03:04:33 15° 66° (ENE) 03:07:07 437.445
ITAMSAT 1 27 Feb 03:24:32 03:29:39 53° 100° (E) 03:34:44 435.822/435.867
STARS 27 Feb 03:31:15 03:33:27 14° 65° (ENE) 03:35:41 437.465
AO-7 27 Feb 03:40:31 03:48:35 52° 102° (ESE) 03:56:35 .
AO-85 27 Feb 03:44:59 03:49:36 63° 117° (ESE) 03:53:52 145.980
CUBESAT XI-V 27 Feb 03:46:57 03:50:57 29° 70° (ENE) 03:54:55 437.345
Gurwin Techsat 1B 27 Feb 03:47:57 03:51:18 17° 296° (WNW) 03:54:38 435.225
MOZHAYETS 4 27 Feb 04:20:43 04:23:51 18° 266° (W) 04:27:02
KKS-1 27 Feb 04:36:30 04:40:42 43° 261° (W) 04:44:57 437.445
RS-15 27 Feb 04:43:19 04:52:46 28° 258° (WSW) 05:01:57 29.354- 29.394
M-CUBED/EXP-1 PRIME 27 Feb 04:54:51 04:58:08 87° 257° (WSW) 05:01:24 437.505
STARS 27 Feb 05:05:10 05:09:21 48° 260° (W) 05:13:36 437.465
ITAMSAT 1 27 Feb 05:05:17 05:08:39 17° 296° (WNW) 05:11:59 435.822/435.867
CUBESAT XI-V 27 Feb 05:24:30 05:28:15 24° 265° (W) 05:32:02 437.345
BEESAT 3 27 Feb 05:25:05 05:28:42 38° 114° (ESE) 05:32:22 437.485
AO-85 27 Feb 05:28:01 05:30:18 14° 312° (NW) 05:32:31 145.980
XW-2F 27 Feb 05:31:25 05:31:41 10° 91° (E) 05:31:55 145.980 - 146.000
AO-7 27 Feb 05:33:50 05:40:57 33° 299° (WNW) 05:48:02 .
XW-2D 27 Feb 05:35:48 05:37:37 13° 93° (E) 05:39:25 145.860 - 145.880
XW-2B 27 Feb 05:40:35 05:42:45 15° 93° (E) 05:44:54 145.730 - 145.750
XW-2C 27 Feb 05:48:48 05:51:33 19° 95° (E) 05:54:17 145.795 - 145.815
DOVE 4 27 Feb 05:53:25 05:57:44 31° 97° (E) 06:02:12 437.250
NUDT-PHONESAT 27 Feb 05:53:51 05:56:24 17° 94° (E) 05:58:55 437.300
LilacSat-2 27 Feb 06:07:08 06:10:39 34° 98° (E) 06:14:07 437.200
BEESAT 2 27 Feb 06:07:29 06:11:15 46° 116° (ESE) 06:15:05 435.950
ISS 27 Feb 06:13:06 06:15:24 18° 129° (SE) 06:17:42 437.550
CUTE-I 27 Feb 06:25:42 06:30:56 50° 100° (E) 06:36:07 437.470
Tancredo 1 27 Feb 06:33:08 06:36:03 31° 132° (SE) 06:38:58 437.200
STRAND 1 27 Feb 06:35:18 06:40:10 46° 72° (ENE) 06:45:04 437.568
SO-50 27 Feb 06:36:22 06:40:35 38° 55° (NE) 06:44:45 436.795
KAITUO 1B 27 Feb 06:54:12 06:57:56 69° 284° (WNW) 07:01:38 145.475/437.950
XW-2F 27 Feb 07:02:25 07:06:03 43° 286° (WNW) 07:09:37 145.980 - 146.000
BEESAT 3 27 Feb 07:03:54 07:06:27 16° 311° (NW) 07:09:01 437.485
XW-2D 27 Feb 07:08:26 07:11:55 34° 287° (WNW) 07:15:21 145.860 - 145.880
XW-2B 27 Feb 07:13:37 07:17:00 30° 288° (WNW) 07:20:21 145.730 - 145.750
CUTE 1.7 + AOD 2 27 Feb 07:15:59 07:19:18 22° 95° (E) 07:22:37 437.475
O/OREOS (USA 219) 27 Feb 07:18:20 07:20:08 12° 56° (NE) 07:21:55 437.305
XW-2C 27 Feb 07:22:36 07:25:41 24° 289° (WNW) 07:28:45 145.795 - 145.815
NUDT-PHONESAT 27 Feb 07:27:11 07:30:18 25° 288° (WNW) 07:33:23 437.300
DOVE 4 27 Feb 07:31:18 07:35:15 26° 290° (WNW) 07:39:20 437.250
LilacSat-2 27 Feb 07:42:35 07:44:35 14° 292° (WNW) 07:46:36 437.200
BEESAT 2 27 Feb 07:47:00 07:49:17 15° 312° (NW) 07:51:35 435.950
ISS 27 Feb 07:48:32 07:51:38 37° 324° (NW) 07:54:45 437.550
AAUSAT CUBESAT 2 27 Feb 07:52:55 07:55:46 18° 94° (E) 07:58:37 437.432
HO-68 27 Feb 07:54:40 08:01:46 64° 103° (ESE) 08:08:50 435.675
CUBEBUG 2 27 Feb 07:54:51 07:59:02 30° 96° (E) 08:03:08 437.445
CUTE-I 27 Feb 08:06:51 08:10:32 19° 295° (WNW) 08:14:14 437.470
XW-2A 27 Feb 08:07:34 08:10:50 40° 285° (WNW) 08:14:05 145.665 - 145.685
SEEDS 27 Feb 08:08:44 08:12:52 64° 100° (E) 08:16:58 437.485
Tancredo 1 27 Feb 08:09:37 08:12:19 24° 328° (NNW) 08:15:02 437.200
STRAND 1 27 Feb 08:16:02 08:19:31 18° 266° (W) 08:23:02 437.568
SO-50 27 Feb 08:17:34 08:20:43 19° 250° (WSW) 08:23:53 436.795
UWE-3 27 Feb 08:27:43 08:32:08 42° 98° (E) 08:36:27 435.000/436.395/437.385
ZACube-1 27 Feb 08:44:11 08:48:23 36° 97° (E) 08:52:28 437.345
CUTE 1.7 + AOD 2 27 Feb 08:51:36 08:55:03 25° 290° (WNW) 08:58:28 437.475
PRISM 27 Feb 08:52:22 08:56:17 49° 74° (ENE) 09:00:14 437.425
O/OREOS (USA 219) 27 Feb 08:55:25 08:59:58 65° 252° (WSW) 09:04:30 437.305
FO-29 27 Feb 08:58:43 09:03:56 22° 60° (ENE) 09:09:23 435.910
YUBILEINY 27 Feb 09:04:37 09:10:45 21° 81° (E) 09:16:50 435.215
DELFI C3 27 Feb 09:07:45 09:09:47 14° 93° (E) 09:11:48 145.870
AAUSAT CUBESAT 2 27 Feb 09:27:41 09:31:14 29° 288° (WNW) 09:34:48 437.432
AO-73 27 Feb 09:31:11 09:35:42 69° 284° (WNW) 09:40:04 145.935
CUBEBUG 2 27 Feb 09:31:38 09:35:27 24° 291° (WNW) 09:39:13 437.445
Oscar 11 27 Feb 09:35:13 09:39:31 71° 285° (WNW) 09:43:47 .
TIGRISAT 27 Feb 09:40:16 09:44:43 64° 75° (ENE) 09:49:18 435.000
UNISAT 6 27 Feb 09:40:37 09:45:05 70° 76° (ENE) 09:49:41 437.425
HO-68 27 Feb 09:43:34 09:48:53 23° 299° (WNW) 09:54:11 435.675
UWE-3 27 Feb 10:05:12 10:08:12 17° 293° (WNW) 10:11:09 435.000/436.395/437.385
EO-79 27 Feb 10:16:14 10:18:10 13° 66° (ENE) 10:20:06 145.935-145.965
ZACube-1 27 Feb 10:21:13 10:24:19 19° 293° (WNW) 10:27:24 437.345
NANOSAT C BR1 27 Feb 10:30:50 10:33:39 18° 68° (ENE) 10:36:28 145.865
PRISM 27 Feb 10:31:03 10:31:49 10° 268° (W) 10:32:36 437.425
POLYITAN 1 27 Feb 10:33:04 10:36:13 21° 69° (ENE) 10:39:23 437.675
QB50P2 27 Feb 10:35:51 10:39:15 24° 70° (ENE) 10:42:40 145.880/145.840
FO-29 27 Feb 10:40:55 10:47:59 75° 258° (WSW) 10:55:47 435.910
DELFI C3 27 Feb 10:41:05 10:44:40 35° 287° (WNW) 10:48:15 145.870
AIST 2D 27 Feb 10:44:15 10:47:36 41° 75° (ENE) 10:50:59 435.315
LO-87 27 Feb 10:44:59 10:47:54 23° 96° (E) 10:50:49 145.935 - 145.965
YUBILEINY 27 Feb 10:57:49 11:06:36 71° 278° (W) 11:15:24 435.215
TIGRISAT 27 Feb 11:21:38 11:21:49 10° 270° (W) 11:21:58 435.000
